www.pogodaiklimat.ru

Погода и климат >> Архив погоды >> Италия >> Матера


ПОГОДА в Матере

  • Прогноз погоды в Матере
  • Монитор погоды в Матере

АРХИВ ПОГОДЫ в Матере

Время (UTC), дата Ветер
(напр.,м/с)
 
Видим.   Явления Облачность Т
(С)
Тd
(С)
f
(%)
Тe
(С)
Тes
(С)
Комфортность P
(гПа)
Po
(гПа)
Тmin
(С)
Tmax
(С)
R
(мм)
R24
(мм)
S
(см)
10 15.01 СВ 12 н/о н/о +5.5 +0.2 69 -1 -1 1017.6 957.7
11 15.01 В 12 н/о н/о +5.7 -2.7 55 -0 -0 1017.9 958.0
12 15.01 СВ 11 н/о н/о +5.8 -2.4 56 -0 -0 1018.3 958.4 1
13 15.01 СВ 10 н/о н/о +5.7 -5.1 46 0 0 1018.7 958.7
14 15.01 СВ 17 н/о н/о +5.4 -5.1 47 -2 -2 1019.4 959.4
15 15.01 СВ 14 н/о н/о +4.8 -4.6 51 -2 -2 1020.2 960.0
16 15.01 СВ 10 н/о н/о +3.1 -5.7 52 -3 -3 1021.3 960.6
17 15.01 СВ 7 н/о н/о +1.6 -5.0 61 -4 -4 1023.0 961.9
18 15.01 СВ 7 н/о н/о +1.2 -4.5 66 -5 -5 1023.7 962.5 +6.3 1
19 15.01 СВ 8 н/о н/о +0.9 -4.8 66 -6 -6 1024.1 962.9
20 15.01 С 6 н/о н/о +0.8 -4.7 67 -5 -5 1024.9 963.6
21 15.01 С 7 н/о н/о +1.0 -3.7 71 -6 -6 1025.5 964.1
22 15.01 С 6 н/о н/о +1.0 -3.7 71 -5 -5 1026.0 964.6
23 15.01 С 4 н/о н/о +0.8 -4.3 69 -4 -4 1026.1 964.7
00 16.01 С 4 н/о н/о +0.9 -4.6 67 -4 -4 1026.3 964.9
01 16.01 С 5 н/о н/о +2.2 -4.0 64 -3 -3 1026.2 965.1
02 16.01 С 6 н/о н/о +2.0 -4.2 63 -3 -3 1026.2 965.1
03 16.01 СЗ 4 н/о н/о +1.9 -4.3 63 -3 -3 1026.0 964.8
04 16.01 С 5 н/о н/о +2.1 -5.2 58 -3 -3 1025.5 964.4
05 16.01 С 4 н/о н/о +2.6 -6.1 53 -2 -2 1025.8 964.7
06 16.01 СЗ 4 н/о н/о +2.2 -8.4 45 -2 -2 1026.3 965.0 +0.5 208
07 16.01 С 4 н/о н/о +3.7 -3.9 58 -0 -0 1026.0 965.3
08 16.01 СЗ 3 н/о н/о +4.9 -4.5 51 +2 +2 1026.0 965.5
09 16.01 СЗ 7 н/о н/о +6.9 -4.0 46 +3 +3 1026.0 965.9
10 16.01 СЗ 6 н/о н/о +8.2 -2.3 47 +5 +5 1025.8 966.0
11 16.01 СЗ 4 н/о н/о +9.2 -1.1 48 +7 +7 1024.8 965.2
12 16.01 С 6 н/о н/о +9.4 -0.1 51 +6 +6 1024.3 964.8
13 16.01 С 5 н/о н/о +9.9 +0.9 53 +7 +7 1024.0 964.7
14 16.01 С 6 н/о н/о +9.8 +0.3 52 +7 +7 1024.0 964.7
15 16.01 С 4 н/о н/о +9.6 +1.2 56 +7 +7 1024.2 964.7
16 16.01 С 3 н/о н/о +7.9 +0.5 59 +6 +6 1024.6 964.8
17 16.01 С 3 н/о н/о +6.6 +0.4 65 +4 +4 1025.0 964.9
18 16.01 С 4 н/о н/о +6.8 +0.8 66 +3 +3 1025.1 965.1 +10.6
19 16.01 С 3 н/о н/о +6.4 +0.4 65 +4 +4 1025.3 965.1
20 16.01 С 2 н/о н/о +6.0 +0.3 67 +4 +4 1025.3 965.0
21 16.01 С 4 н/о н/о +5.7 +0.6 70 +2 +2 1025.4 965.1
22 16.01 СЗ 4 н/о н/о +3.0 -1.4 73 -1 -1 1026.1 965.2
23 16.01 СЗ 3 н/о н/о +2.5 -0.6 80 -1 -1 1025.9 964.9
00 17.01 ЮЗ 2 н/о н/о +3.3 -0.4 77 0 0 1025.0 964.2
01 17.01 ЮЗ 3 н/о н/о +4.2 +0.1 75 +1 +1 1024.6 964.0
02 17.01 ЮЗ 2 н/о н/о +3.5 -0.6 75 +1 +1 1024.8 964.0
03 17.01 ЮЗ 2 н/о н/о +3.5 -0.2 77 +1 +1 1024.3 963.6
04 17.01 З 5 н/о н/о +3.1 -0.6 77 -2 -2 1023.7 963.0
05 17.01 З 4 н/о н/о +2.8 -0.9 77 -2 -2 1023.6 962.8
06 17.01 ЮЗ 5 н/о н/о +3.0 -0.7 77 -2 -2 1023.6 962.8 +2.3 208
07 17.01 З 2 н/о н/о +4.0 -0.7 71 +2 +2 1023.1 962.7
08 17.01 ЮЗ 2 н/о н/о +6.0 +0.3 67 +4 +4 1022.9 962.8
09 17.01 ЮЗ 3 н/о н/о +8.3 +2.5 67 +6 +6 1022.9 963.2
10 17.01 ЮЗ 3 н/о н/о +9.1 +0.2 54 +7 +7 1022.7 963.3
11 17.01 ЮЗ 2 н/о н/о +9.9 +0.4 52 +9 +9 1021.8 962.5
12 17.01 ЮЗ 4 н/о н/о +9.7 +0.7 53 +7 +7 1021.1 961.9
13 17.01 ЮЗ 4 н/о н/о +10.1 0.0 49 +8 +8 1020.5 961.4
14 17.01 ЮЗ 4 н/о н/о +9.9 +1.4 55 +8 +8 1020.4 961.2
15 17.01 ЮЗ 4 н/о н/о +9.2 +2.2 62 +7 +7 1020.3 961.0
16 17.01 ЮЗ 4 н/о н/о +6.9 +2.5 74 +3 +3 1020.5 960.7
17 17.01 ЮЗ 4 н/о н/о +5.6 +3.6 87 +2 +2 1021.0 960.9
18 17.01 ЮЗ 4 н/о н/о +5.0 +4.1 94 +1 +1 1021.0 960.8 +10.5
19 17.01 ЮЗ 5 н/о н/о +5.4 +5.3 99 +1 +1 1020.8 960.7
20 17.01 ЮЗ 5 н/о н/о +5.4 +5.4 100 +1 +1 1020.8 960.7
21 17.01 ЮЗ 4 н/о н/о +5.4 +5.3 99 +1 +1 1020.6 960.5
22 17.01 ЮЗ 5 н/о н/о +5.6 +5.6 100 +1 +1 1020.4 960.4
23 17.01 ЮЗ 5 н/о н/о +5.7 +5.7 100 +1 +1 1020.1 960.1
00 18.01 ЮЗ 3 н/о н/о +6.1 +6.1 100 +3 +3 1019.5 959.6
01 18.01 ЮЗ 4 н/о н/о +5.9 +5.9 100 +2 +2 1019.2 959.3
02 18.01 ЮЗ 5 н/о н/о +5.9 +5.9 100 +1 +1 1018.9 959.0
03 18.01 З 5 н/о н/о +6.2 +5.0 92 +2 +2 1018.1 958.3
04 18.01 ЮЗ 5 н/о н/о +6.1 +4.6 90 +2 +2 1017.5 957.7
05 18.01 ЮЗ 6 н/о н/о +6.0 +3.6 85 +1 +1 1017.2 957.4
06 18.01 ЮЗ 3 н/о н/о +5.7 +4.8 94 +3 +3 1017.6 957.7 +4.9 407
07 18.01 Ю 4 н/о н/о +4.8 +4.7 99 +1 +1 1017.7 957.7
09 18.01 З 7 н/о н/о +8.3 +6.9 91 +4 +4 1017.5 958.2
11 18.01 З 7 н/о н/о +11.1 +5.4 68 +8 +8 1016.6 957.9
10 18.01 З 5 н/о н/о +10.0 +6.5 79 +7 +7 1017.4 958.5
12 18.01 З 6 н/о н/о +12.1 +5.9 66 +10 +10 1015.8 957.3
13 18.01 З 6 н/о н/о +11.2 +5.0 66 +8 +8 1016.1 957.4
14 18.01 З 7 н/о н/о +10.5 +4.8 68 +7 +7 1016.1 957.3
15 18.01 З 4 н/о н/о +10.1 +4.6 69 +8 +8 1016.3 957.4
17 18.01 З 4 н/о н/о +8.0 +4.0 76 +5 +5 1016.9 957.6
16 18.01 ЮЗ 2 н/о н/о +8.9 +4.8 75 +7 +7 1016.6 957.4
18 18.01 З 4 н/о н/о +7.5 +3.9 78 +4 +4 1017.3 957.8 +12.4
19 18.01 З 4 н/о н/о +6.3 +3.1 80 +3 +3 1017.4 957.7
20 18.01 СЗ 6 н/о н/о +6.2 +2.6 78 +2 +2 1017.4 957.7
21 18.01 СЗ 4 н/о н/о +5.2 +1.6 78 +1 +1 1018.0 958.0
23 18.01 СЗ 5 н/о н/о +5.0 +2.3 83 0 0 1017.9 957.9
22 18.01 СЗ 5 н/о н/о +5.6 +2.6 81 +1 +1 1017.9 958.0
00 19.01 СЗ 4 н/о н/о +4.9 +1.7 80 +1 +1 1017.7 957.7
01 19.01 СЗ 3 н/о н/о +5.7 +2.7 81 +2 +2 1017.5 957.6
02 19.01 З 4 н/о н/о +5.3 +2.1 80 +2 +2 1017.3 957.4
03 19.01 З 4 н/о н/о +5.2 +2.0 80 +1 +1 1017.2 957.3
05 19.01 ЮЗ 2 н/о н/о +4.5 +1.7 82 +2 +2 1016.8 956.7
04 19.01 З 4 н/о н/о +5.0 +1.6 79 +1 +1 1016.7 956.8
06 19.01 З 4 н/о н/о +4.8 +2.1 83 +1 +1 1016.9 956.9 +4.2 707
07 19.01 З 4 н/о н/о +6.5 +3.8 83 +3 +3 1016.5 956.9
08 19.01 ЮЗ 3 н/о н/о +7.6 +5.4 86 +5 +5 1016.6 957.2
09 19.01 ЮЗ 4 н/о н/о +9.0 +6.8 86 +6 +6 1017.0 957.8
11 19.01 ЮЗ 5 н/о н/о +11.2 +5.4 67 +9 +9 1015.9 957.2
10 19.01 ЮЗ 4 н/о н/о +9.2 +5.7 79 +7 +7 1017.1 958.0
12 19.01 ЮЗ 4 н/о н/о +11.7 +5.5 66 +10 +10 1015.2 956.7
13 19.01 ЮЗ 2 н/о н/о +12.0 +5.6 65 +11 +11 1014.4 956.0
14 19.01 З 3 н/о н/о +12.6 +5.2 61 +11 +11 1014.1 955.8
15 19.01 ЮЗ 2 н/о н/о +12.2 +5.1 62 +12 +12 1014.2 955.8
17 19.01 ЮЗ 3 н/о н/о +7.6 +5.7 88 +5 +5 1015.3 956.0
16 19.01 Ю 3 н/о н/о +9.8 +5.1 73 +8 +8 1014.6 955.7
18 19.01 С 10 н/о н/о +6.4 +5.2 92 0 0 1016.2 956.5 +12.8 0.8
19 19.01 СВ 4 н/о н/о +5.8 +5.8 100 +2 +2 1016.4 956.6
20 19.01 СВ 2 н/о н/о +5.8 +5.7 99 +3 +3 1016.1 956.4
21 19.01 штиль 0 н/о н/о +6.2 +4.7 90 +5 +5 1016.3 956.6
23 19.01 С 4 н/о н/о +6.3 +3.8 84 +3 +3 1016.3 956.7
22 19.01 СВ 2 н/о н/о +6.0 +3.6 85 +4 +4 1016.7 956.9
00 20.01 С 4 н/о н/о +5.7 +2.1 78 +2 +2 1016.2 956.4 1
01 20.01 С 3 н/о н/о +5.7 +2.7 81 +2 +2 1016.1 956.4
02 20.01 С 3 н/о н/о +5.7 +1.9 77 +2 +2 1016.2 956.4
03 20.01 С 3 н/о н/о +5.8 +2.0 77 +3 +3 1015.8 956.1
05 20.01 С 3 н/о н/о +4.6 +0.3 74 +1 +1 1016.1 956.1
04 20.01 СЗ 2 н/о н/о +5.6 -0.3 66 +4 +4 1015.8 956.0
06 20.01 С 2 н/о н/о +5.6 -0.5 65 +4 +4 1016.1 956.4 +4.3 1 105
07 20.01 штиль 0 н/о н/о +6.1 -0.9 61 +6 +6 1016.7 956.9
08 20.01 штиль 0 н/о н/о +6.5 +2.5 76 +6 +6 1017.0 957.4
09 20.01 штиль 0 н/о н/о +8.7 +1.3 60 +8 +8 1016.9 957.6
11 20.01 штиль 0 н/о н/о +10.2 +3.6 64 +10 +10 1016.3 957.4
10 20.01 штиль 0 н/о н/о +9.6 +0.1 52 +9 +9 1016.8 957.7
12 20.01 штиль 0 н/о н/о +10.8 +2.8 58 +10 +10 1015.6 956.9
13 20.01 Ю 3 н/о н/о +10.1 +2.6 60 +8 +8 1015.3 956.5
14 20.01 Ю 3 н/о н/о +9.9 +2.9 62 +8 +8 1015.3 956.4
15 20.01 Ю 5 н/о н/о +9.3 +3.2 66 +6 +6 1015.3 956.3
17 20.01 Ю 2 н/о н/о +6.8 +4.1 83 +5 +5 1016.4 956.8
16 20.01 Ю 3 н/о н/о +7.9 +4.1 77 +5 +5 1015.9 956.6
18 20.01 Ю 2 н/о н/о +6.5 +4.5 87 +4 +4 1016.5 956.9 +11.0
19 20.01 Ю 3 н/о н/о +6.3 +4.8 90 +3 +3 1016.8 957.1
20 20.01 Ю 3 н/о н/о +5.8 +4.7 93 +3 +3 1016.9 957.1
21 20.01 Ю 4 н/о н/о +5.6 +5.5 99 +2 +2 1017.3 957.4
23 20.01 ЮЗ 4 н/о н/о +4.6 +4.6 100 0 0 1017.4 957.4
22 20.01 ЮЗ 4 н/о н/о +5.5 +5.5 100 +1 +1 1017.5 957.6
00 21.01 ЮЗ 4 н/о н/о +5.6 +4.5 93 +1 +1 1017.0 957.1 2
01 21.01 ЮЗ 4 н/о н/о +5.3 +4.4 94 +1 +1 1016.9 957.0
02 21.01 ЮЗ 3 н/о н/о +5.5 +5.4 99 +2 +2 1016.9 957.0
03 21.01 ЮЗ 4 н/о н/о +5.6 +5.6 100 +2 +2 1016.5 956.7
05 21.01 Ю 4 н/о н/о +6.3 +6.3 100 +2 +2 1015.8 956.2
04 21.01 ЮЗ 3 н/о н/о +5.8 +5.8 100 +2 +2 1016.1 956.4
06 21.01 Ю 5 н/о н/о +6.6 +6.6 100 +2 +2 1016.1 956.5 +4.4 2 8
07 21.01 Ю 4 н/о н/о +6.8 +6.8 100 +3 +3 1016.2 956.7
08 21.01 ЮЗ 5 н/о н/о +7.3 +7.3 100 +3 +3 1016.4 956.9
09 21.01 ЮЗ 5 н/о н/о +7.7 +7.7 100 +4 +4 1016.5 957.1
11 21.01 ЮЗ 4 н/о н/о +8.1 +8.1 100 +5 +5 1015.6 956.4
10 21.01 ЮЗ 5 н/о н/о +7.9 +7.9 100 +4 +4 1016.4 957.1
12 21.01 Ю 6 н/о н/о +8.5 +8.5 100 +4 +4 1014.9 955.8
13 21.01 Ю 6 н/о н/о +9.1 +8.8 98 +5 +5 1014.3 955.3
14 21.01 Ю 6 н/о н/о +8.8 +7.9 94 +5 +5 1014.2 955.2
15 21.01 ЮЗ 4 н/о н/о +8.6 +8.0 96 +6 +6 1014.3 955.2
17 21.01 ЮЗ 3 н/о н/о +7.9 +7.9 100 +5 +5 1013.9 954.7
16 21.01 ЮЗ 3 н/о н/о +8.3 +8.3 100 +5 +5 1014.0 954.9
18 21.01 ЮЗ 4 н/о н/о +7.9 +7.9 100 +4 +4 1013.8 954.6 +9.5
19 21.01 ЮЗ 7 н/о н/о +8.2 +8.2 100 +4 +4 1013.4 954.3
20 21.01 ЮЗ 7 н/о н/о +8.4 +8.4 100 +4 +4 1013.0 954.0
21 21.01 ЮЗ 7 н/о н/о +7.8 +7.8 100 +3 +3 1013.1 954.0
23 21.01 ЮЗ 8 н/о н/о +7.6 +7.6 100 +3 +3 1012.5 953.4
22 21.01 ЮЗ 7 н/о н/о +8.4 +8.4 100 +4 +4 1012.6 953.6
00 22.01 Ю 6 н/о н/о +7.4 +7.4 100 +3 +3 1012.0 952.8 3
01 22.01 ЮЗ 8 н/о н/о +7.5 +7.5 100 +2 +2 1011.4 952.3
02 22.01 ЮЗ 6 н/о н/о +7.7 +7.7 100 +3 +3 1010.8 951.7
03 22.01 ЮЗ 6 н/о н/о +7.7 +7.7 100 +3 +3 1009.9 950.9
05 22.01 ЮЗ 6 н/о н/о +7.8 +7.8 100 +3 +3 1009.1 950.2
04 22.01 ЮЗ 7 н/о н/о +7.6 +7.6 100 +3 +3 1009.3 950.3
06 22.01 Ю 4 н/о н/о +7.7 +7.7 100 +4 +4 1008.4 949.5 +7.2 3
07 22.01 Ю 6 н/о н/о +7.9 +7.9 100 +3 +3 1008.0 949.2
08 22.01 ЮЗ 5 н/о н/о +8.0 +8.0 100 +4 +4 1007.9 949.1
09 22.01 ЮЗ 7 н/о н/о +8.4 +8.4 100 +4 +4 1007.5 948.8

 

Местоположение метеостанции Матера (Италия): широта 40.67 долгота 16.66 высота над уровнем моря 498 м.

В архиве по умолчанию представлена погода в Матере за последнюю неделю. Архивные данные за месяц целиком и за предыдущие месяцы, начиная с января 2011 года, Вы можете получить, выбрав интересующий диапазон дат из раскрывающегося списка и нажав кнопку "Ввод!".


*Определитесь, кто Вы:
робот инопланетянин человек

Внимание! Время в таблицах - всемирное. Для получения местного времени необходимо прибавить поправку, которая равна 1 ч.

Смотрите также архив погоды в соседних городах и на ближайших метеорологических станциях:

Погода в Джоя-дель-Колле (Италия) (25 км)
Погода в Джинозе (Италия) (33 км)
Погода в Мартина-Франка (Италия) (47 км)
Погода в Бари аэропорту (Италия) (52 км)
Погода в Бари (Италия) (53 км)
Погода в Латронико (Италия) (85 км)
Погода в Бриндиси (Италия) (109 км)
Погода в Амендоле (Италия) (124 км)
Погода в Тревико (Италия) (128 км)
Погода в Монте-Сант-Анджело (Италия) (129 км)

Пояснения к столбцам:

Ветер - указаны скорость ветра в м/с - средняя за 10 мин, порывы в срок и между сроками (в фигурных скобках) и направление, откуда дует ветер: С - северный, СВ - северо-восточный, В - восточный, ЮВ - юго-восточный, Ю - южный, ЮЗ - юго-западный, З - западный, СЗ - северо-западный.
Видимость - горизонтальная дальность видимости в метрах или километрах. При видимости от 1 до 10 км при отсутствии осадков обычно наблюдается дымка, при ухудшении видимости до 1 км и менее - туман. В сухую погоду видимость может ухудшаться дымом, пылью или мглою.
Явления - указаны атмосферные явления, наблюдавшиеся в срок или в последний час перед сроком; фигурными скобками обозначены явления, наблюдавшиеся между сроками (за 1-3 часа до срока); квадратными скобками обозначены град или гололедные отложения с указанием их диаметра в мм.
Облачность - указаны через наклонную черту общая и нижняя облачность в баллах и высота нижней границы облаков в метрах; квадратными скобками обозначены формы облаков: Ci - перистые, Cs - перисто-слоистые, Cc - перисто-кучевые, Ac - высококучевые, As - высокослоистые, Sc - слоисто-кучевые, Ns - слоисто-дождевые, Cu - кучевые, Cb - кучево-дождевые. Подробнее классификацию облаков см. в Атласе облаков (PDF).
T - Температура воздуха - температура, измеренная на высоте 2 м над землей.
Td - Температура точки росы - температура, при понижении до которой содержащийся в воздухе водяной пар достигнет насыщения.
f - Относительная влажность воздуха - влажноcть воздуха, измеренная на высоте 2 м над землей.
Te - Эффективная температура - температура, которую ощущает одетый по сезону человек в тени. Характеристика душности погоды. При расчете учитывается влияние влажности воздуха и скорости ветра на теплоощущения человека.
Tes - Эффективная температура на солнце - температура, которую ощущает человек, с поправкой на солнечный нагрев. Характеристика знойности погоды. Зависит от высоты солнца над горизонтом, облачности и скорости ветра. Ночью, в пасмурную погоду, а также при ветре 12 м/с и более поправка равна нулю.
P - Атмосферное давление - приведенное к уровню моря атмосферное давление.
Po - Атмосферное давление - измеренное на уровне метеостанции атмосферное давление.
Tmin - Минимальная температура - минимум температуры воздуха на высоте 2 м над землей.
Tmax - Максимальная температура - максимум температуры воздуха на высоте 2 м над землей.
R - Количество осадков - Количество выпавших осадков за период времени, мм. При наведении курсора мыши на число - период времени, за который выпало указанное количество осадков.
R24 - Количество осадков - Количество выпавших осадков за 24 часа, мм.
S - Снежный покров - Высота снежного покрова, см. При наведении курсора мыши на число - состояние снежного покрова и степень покрытия местности в баллах.